Location: Red n Blue Observatory
(38.4831°N, 87.0953°W)
Time: 18:21:43
(UTC-04:00)

Tiangong - Visible Passes

Search period start: 19 September 2024 00:00
Search period end: 29 September 2024 00:00
Orbit: 373 x 377 km, 41.5° (Epoch: 18 September)

Date Brightness Start Highest point End Pass type
(mag) Time Alt. Az. Time Alt. Az. Time Alt. Az.
19 Sep -2.2 21:13:17 10° WSW 21:16:24 77° NNW 21:16:54 57° NE visible
20 Sep -2.1 20:10:29 10° WSW 20:13:34 66° SSE 20:16:40 10° ENE visible
20 Sep -0.2 21:47:15 10° W 21:49:08 30° WNW 21:49:08 30° WNW visible
21 Sep -1.8 20:44:14 10° W 20:47:18 59° N 20:49:13 20° ENE visible
21 Sep 1.5 22:21:07 10° WNW 22:21:13 11° WNW 22:21:13 11° WNW visible
22 Sep -1.5 21:18:04 10° WNW 21:21:05 45° N 21:21:11 45° N visible
23 Sep -1.5 20:14:55 10° W 20:17:57 49° N 20:20:58 10° ENE visible
23 Sep 0.4 21:51:44 10° WNW 21:53:02 22° WNW 21:53:02 22° WNW visible
24 Sep -1.5 20:48:35 10° WNW 20:51:36 46° N 20:52:50 28° ENE visible
25 Sep -1.5 21:22:02 10° WNW 21:24:33 53° NW 21:24:33 53° NW visible
26 Sep -1.8 20:18:47 10° WNW 20:21:49 52° N 20:24:14 15° E visible
26 Sep 0.9 21:55:25 10° W 21:56:13 16° W 21:56:13 16° W visible
27 Sep -2.3 20:52:03 10° WNW 20:55:09 83° SSW 20:55:53 48° ESE visible
28 Sep -0.3 21:25:26 10° W 21:27:31 27° SW 21:27:31 27° SW visible
